Weather History for Dumas, TX

Change the Weather History Date:

Monday, January 28, 2013

  Actual Average (KBGD) Record (KBGD)
Temperature  
Mean Temperature 52 °F 40 °F  
Max Temperature 66 °F 53 °F 76 °F (2003)
Min Temperature 39 °F 27 °F 6 °F (1966)
Degree Days  
Heating Degree Days 12 25  
Month to date heating degree days 741  
Since 1 July heating degree days 2278  
Cooling Degree Days 0 0  
Month to date cooling degree days 0  
Year to date cooling degree days 0  
Growing Degree Days 2 (Base 50)    
Moisture  
Dew Point 31 °F    
Average Humidity 48    
Maximum Humidity 76    
Minimum Humidity 26    
Precipitation  
Precipitation 0.00 in 0.02 in 1.07 in (2010)
Month to date precipitation 0.51  
Year to date precipitation 0.51  
Snow  
Snow 0.00 in - 5.50 in (2010)
Month to date snowfall  
Since 1 July snowfall  
Snow Depth -    
Sea Level Pressure  
Sea Level Pressure 29.78 in    
Wind  
Wind Speed 16 mph (SW)    
Max Wind Speed 32 mph    
Max Gust Speed 43 mph    
Visibility 10 miles    
Events      
T = Trace of Precipitation, MM = Missing Value Source: NWS Daily Summary

Daily Weather History Graph

Daily Weather History Graph

Search for Another Location

Airport:

Trip Planner

Search our weather history database for the weather conditions in past years. The results will help you decide how hot, cold, wet, or windy it might be!

Date:

Astronomy

Jan. 28, 2013 Rise Set
Actual Time 7:51 AM CST 6:11 PM CST
Civil Twilight 7:24 AM CST 6:38 PM CST
Nautical Twilight 6:53 AM CST 7:09 PM CST
Astronomical Twilight 6:23 AM CST 7:39 PM CST
Moon 8:02 PM CST (1/28) 8:22 AM CST (1/28)
Length of Visible Light 11h 14m
Length of Day
10h 20m
Full, 98% of the Moon is Illuminated
Jan 28
Full
Feb 3
Last Quarter
Feb 10
New
Feb 17
First Quarter
Feb 25
Full

Hourly Weather History & Observations

Time (CST) Temp. Windchill Dew Point Humidity Pressure Visibility Wind Dir Wind Speed Gust Speed Precip Events Conditions
12:15 AM 41.0 °F 34.3 °F 30.2 °F 65% 29.86 in 10.0 mi SW 11.5 mph - N/A   Clear
12:35 AM 42.8 °F 37.5 °F 30.2 °F 61% 29.86 in 10.0 mi SW 9.2 mph - N/A   Clear
12:55 AM 41.0 °F 34.7 °F 30.2 °F 65% 29.86 in 10.0 mi WSW 10.4 mph - N/A   Clear
1:15 AM 41.0 °F 34.7 °F 30.2 °F 65% 29.86 in 10.0 mi WSW 10.4 mph - N/A   Clear
1:35 AM 41.0 °F 34.7 °F 30.2 °F 65% 29.86 in 10.0 mi WSW 10.4 mph - N/A   Clear
1:55 AM 39.2 °F 32.5 °F 30.2 °F 70% 29.86 in 10.0 mi SW 10.4 mph - N/A   Clear
2:15 AM 41.0 °F 33.9 °F 30.2 °F 65% 29.86 in 10.0 mi SW 12.7 mph - N/A   Clear
2:35 AM 42.8 °F 36.2 °F 32.0 °F 66% 29.85 in 10.0 mi SW 12.7 mph - N/A   Clear
2:55 AM 42.8 °F 36.2 °F 32.0 °F 66% 29.85 in 10.0 mi WSW 12.7 mph - N/A   Clear
3:15 AM 42.8 °F 36.2 °F 32.0 °F 66% 29.84 in 10.0 mi WSW 12.7 mph - N/A   Clear
3:35 AM 42.8 °F 34.8 °F 32.0 °F 66% 29.84 in 10.0 mi SW 17.3 mph - N/A   Clear
3:55 AM 42.8 °F 35.1 °F 32.0 °F 66% 29.84 in 10.0 mi SW 16.1 mph - N/A   Clear
4:15 AM 42.8 °F 36.2 °F 32.0 °F 66% 29.84 in 10.0 mi SW 12.7 mph - N/A   Clear
4:35 AM 41.0 °F 34.3 °F 32.0 °F 70% 29.84 in 10.0 mi SW 11.5 mph - N/A   Clear
4:55 AM 41.0 °F 33.5 °F 32.0 °F 70% 29.83 in 10.0 mi SW 13.8 mph - N/A   Clear
5:15 AM 41.0 °F 33.5 °F 32.0 °F 70% 29.83 in 10.0 mi SW 13.8 mph - N/A   Clear
5:35 AM 42.8 °F 35.8 °F 32.0 °F 66% 29.83 in 10.0 mi SW 13.8 mph - N/A   Clear
5:55 AM 42.8 °F 35.4 °F 32.0 °F 66% 29.83 in 10.0 mi SW 15.0 mph - N/A   Clear
6:15 AM 42.8 °F 35.4 °F 32.0 °F 66% 29.82 in 10.0 mi SSW 15.0 mph - N/A   Clear
6:35 AM 44.6 °F 37.4 °F 33.8 °F 66% 29.82 in 10.0 mi SW 16.1 mph - N/A   Clear
6:55 AM 42.8 °F 35.4 °F 33.8 °F 70% 29.82 in 10.0 mi SW 15.0 mph - N/A   Clear
7:15 AM 41.0 °F 32.8 °F 33.8 °F 76% 29.82 in 10.0 mi SW 16.1 mph - N/A   Clear
7:35 AM 41.0 °F 32.5 °F 32.0 °F 70% 29.83 in 10.0 mi SW 17.3 mph - N/A   Clear
7:55 AM 41.0 °F 32.5 °F 32.0 °F 70% 29.82 in 10.0 mi SW 17.3 mph - N/A   Clear
8:15 AM 42.8 °F 34.5 °F 32.0 °F 66% 29.83 in 10.0 mi SSW 18.4 mph - N/A   Clear
8:35 AM 42.8 °F 36.2 °F 32.0 °F 66% 29.83 in 10.0 mi SSW 12.7 mph - N/A   Clear
8:55 AM 42.8 °F 35.8 °F 33.8 °F 70% 29.83 in 10.0 mi SSW 13.8 mph - N/A   Clear
9:15 AM 46.4 °F 39.5 °F 33.8 °F 62% 29.83 in 10.0 mi SSW 17.3 mph - N/A   Clear
9:35 AM 50.0 °F - 33.8 °F 54% 29.83 in 10.0 mi SSW 15.0 mph - N/A   Clear
9:55 AM 51.8 °F - 33.8 °F 50% 29.83 in 10.0 mi SSW 17.3 mph - N/A   Clear
10:15 AM 53.6 °F - 33.8 °F 47% 29.82 in 10.0 mi SSW 19.6 mph 23.0 mph N/A   Clear
10:35 AM 55.4 °F - 33.8 °F 44% 29.83 in 10.0 mi SW 20.7 mph 27.6 mph N/A   Clear
10:55 AM 57.2 °F - 33.8 °F 41% 29.83 in 10.0 mi SW 24.2 mph - N/A   Clear
11:15 AM 59.0 °F - 33.8 °F 39% 29.82 in 10.0 mi SW 24.2 mph 33.4 mph N/A   Clear
11:35 AM 60.8 °F - 32.0 °F 34% 29.82 in 10.0 mi SW 29.9 mph 34.5 mph N/A   Clear
11:55 AM 62.6 °F - 32.0 °F 32% 29.80 in 10.0 mi SW 28.8 mph 36.8 mph N/A   Clear
12:15 PM 62.6 °F - 32.0 °F 32% 29.80 in 10.0 mi SW 29.9 mph 38.0 mph N/A   Clear
12:35 PM 64.4 °F - 32.0 °F 30% 29.79 in 10.0 mi SW 31.1 mph 41.4 mph N/A   Clear
12:55 PM 64.4 °F - 32.0 °F 30% 29.77 in 10.0 mi SSW 29.9 mph 35.7 mph N/A   Clear
1:15 PM 64.4 °F - 32.0 °F 30% 29.76 in 10.0 mi SW 32.2 mph 35.7 mph N/A   Clear
1:35 PM 64.4 °F - 30.2 °F 28% 29.74 in 10.0 mi SW 32.2 mph 40.3 mph N/A   Clear
1:55 PM 66.2 °F - 32.0 °F 28% 29.73 in 10.0 mi SW 31.1 mph 38.0 mph N/A   Clear
2:15 PM 66.2 °F - 32.0 °F 28% 29.72 in 10.0 mi WSW 26.5 mph 35.7 mph N/A   Clear
2:35 PM 66.2 °F - 32.0 °F 28% 29.71 in 10.0 mi SW 29.9 mph 36.8 mph N/A   Clear
2:55 PM 66.2 °F - 32.0 °F 28% 29.71 in 10.0 mi SSW 29.9 mph 42.6 mph N/A   Clear
3:15 PM 66.2 °F - 32.0 °F 28% 29.71 in 10.0 mi SW 28.8 mph 35.7 mph N/A   Clear
3:35 PM 66.2 °F - 30.2 °F 26% 29.71 in 10.0 mi SW 31.1 mph 36.8 mph N/A   Clear
3:55 PM 66.2 °F - 30.2 °F 26% 29.71 in 10.0 mi SSW 29.9 mph 36.8 mph N/A   Clear
4:15 PM 64.4 °F - 30.2 °F 28% 29.71 in 10.0 mi SW 27.6 mph 35.7 mph N/A   Clear
4:35 PM 64.4 °F - 30.2 °F 28% 29.70 in 10.0 mi SW 26.5 mph 32.2 mph N/A   Clear
4:55 PM 64.4 °F - 32.0 °F 30% 29.70 in 10.0 mi SW 23.0 mph - N/A   Clear
5:15 PM 62.6 °F - 32.0 °F 32% 29.71 in 10.0 mi SW 24.2 mph 27.6 mph N/A   Clear
5:35 PM 60.8 °F - 32.0 °F 34% 29.71 in 10.0 mi SW 24.2 mph 29.9 mph N/A   Clear
5:55 PM 60.8 °F - 32.0 °F 34% 29.71 in 10.0 mi SSW 16.1 mph - N/A   Clear
6:15 PM 59.0 °F - 30.2 °F 34% 29.71 in 10.0 mi SW 15.0 mph - N/A   Clear
6:35 PM 55.4 °F - 30.2 °F 38% 29.71 in 10.0 mi SSW 11.5 mph - N/A   Clear
6:55 PM 51.8 °F - 30.2 °F 44% 29.71 in 10.0 mi SSW 9.2 mph - N/A   Clear
7:15 PM 48.2 °F - 28.4 °F 46% 29.71 in 10.0 mi SSW 10.4 mph - N/A   Clear
7:35 PM 48.2 °F - 30.2 °F 50% 29.72 in 10.0 mi South 11.5 mph - N/A   Clear
7:55 PM 51.8 °F - 30.2 °F 44% 29.72 in 10.0 mi South 12.7 mph - N/A   Clear
8:15 PM 53.6 °F - 28.4 °F 38% 29.72 in 10.0 mi SSW 13.8 mph - N/A   Clear
8:35 PM 53.6 °F - 28.4 °F 38% 29.72 in 10.0 mi SSW 15.0 mph - N/A   Clear
8:55 PM 55.4 °F - 28.4 °F 36% 29.73 in 10.0 mi SSW 18.4 mph - N/A   Clear
9:15 PM 51.8 °F - 28.4 °F 41% 29.73 in 10.0 mi SSW 15.0 mph - N/A   Clear
9:35 PM 53.6 °F - 26.6 °F 35% 29.73 in 10.0 mi SSW 18.4 mph - N/A   Clear
9:55 PM 53.6 °F - 26.6 °F 35% 29.73 in 10.0 mi SSW 19.6 mph 24.2 mph N/A   Clear
10:15 PM 53.6 °F - 26.6 °F 35% 29.73 in 10.0 mi SSW 21.9 mph - N/A   Clear
10:35 PM 51.8 °F - 26.6 °F 38% 29.72 in 10.0 mi SSW 17.3 mph - N/A   Clear
10:55 PM 50.0 °F - 26.6 °F 40% 29.73 in 10.0 mi SSW 15.0 mph - N/A   Clear
11:15 PM 46.4 °F 40.4 °F 26.6 °F 46% 29.73 in 10.0 mi SSW 13.8 mph - N/A   Clear
11:35 PM 46.4 °F 40.7 °F 26.6 °F 46% 29.72 in 10.0 mi SSW 12.7 mph - N/A   Clear
11:55 PM 48.2 °F - 26.6 °F 43% 29.72 in 10.0 mi SW 13.8 mph - N/A   Clear